Regional Weather Roundup
Issued by NWS

Home | Current Version | Previous Version | Graphics & Text | Print | Product List | Glossary On
Versions: 1 2 3 4 5 6 7 8 9 10 11 12 13 14 15 16 17 18 19 20 21 22 23 24 25 26 27 28 29 30 31 32 33 34 35 36 37 38 39 40 41 42 43 44 45 46 47 48 49 50
000
ASUS43 KFSD 252010
RWRSD

WEATHER ROUNDUP FOR SOUTH DAKOTA
NATIONAL WEATHER SERVICE SIOUX FALLS SD
300 PM CDT SAT MAR 25 2017

NOTE: "FAIR" INDICATES FEW OR NO CLOUDS BELOW 12,000 FEET WITH NO
SIGNIFICANT WEATHER AND/OR OBSTRUCTIONS TO VISIBILITY.


SDZ001>005-009-010-012>017-252100-
NORTHWEST AND NORTH CENTRAL SOUTH DAKOTA

CITY           SKY/WX    TMP DP  RH WIND       PRES   REMARKS
BUFFALO          N/A     62  32  32 NE14G20   29.82F
FAITH            N/A     58  31  35 MISG      29.88F
MOBRIDGE       PTSUNNY   50  32  50 SE15      29.95F
$$

SDZ012>016-024>037-041>051-057-063-072>074-252100-
SOUTHWEST AND SOUTH CENTRAL SOUTH DAKOTA

CITY           SKY/WX    TMP DP  RH WIND       PRES   REMARKS
RAPID CTY ARPT CLOUDY    65  31  28 NW12      29.86F
PIERRE         SUNNY     53  33  46 SE15      29.95F
CUSTER         SUNNY     58  28  32 E14G20    29.89F
ELLSWORTH AFB  CLOUDY    64  31  29 N12       29.86F
PHILIP         MOSUNNY   65  21  18 SE21G29   29.88F
PINE RIDGE     CLOUDY    69  32  25 S14G21    29.86F
SPEARFISH      FAIR      57  36  44 N10       29.89F
WINNER         FAIR      59  31  34 SE10      29.97F
$$

SDZ004>011-016>023-039-040-252100-
NORTHEAST SOUTH DAKOTA

CITY           SKY/WX    TMP DP  RH WIND       PRES   REMARKS
ABERDEEN       CLOUDY    45  31  58 SE8       30.06F
WATERTOWN      CLOUDY    37  32  82 E6        30.06F
BROOKINGS      CLOUDY    40  35  83 E13       30.03F
SISSETON         N/A     37  32  82 S8        30.08F
$$

SDZ017-020-022-023-036>040-048>070-252100-
SOUTHEAST SOUTH DAKOTA

CITY           SKY/WX    TMP DP  RH WIND       PRES   REMARKS
SIOUX FALLS    CLOUDY    44  38  79 E13       30.01F
HURON          MOSUNNY   46  34  62 SE9       30.04F
CHAMBERLAIN    SUNNY     52  36  54 E8G16     29.99F
MITCHELL       CLOUDY    42  36  79 NE7       30.05F
YANKTON        CLOUDY    43  37  81 NE8       30.00F
$$

ABBREVIATIONS USED IN REMARKS
   TC - TEMPERATURE IN CELSIUS
  WCI - WIND CHILL INDEX
   HX - HEAT INDEX
  VSB - VISIBILITY





USA.gov is the U.S. government's official web portal to all federal, state and local government web resources and services.